Location: Albuquerque Trailhead
(34.7934°N, 106.3736°W)
Time: 09:49:41
(UTC+00:00)

Exosat Rocket - Pass Details

Date: 31 October 2021
Orbit: 759 x 2516 km, 72.3° (Epoch: 08 December)

Event Time Altitude Azimuth Distance (km) Brightness Sun altitude
Exits shadow 12:16:16 17° 265° (W) 3,579 6.3 -14.7°
Maximum altitude 12:22:48 29° 311° (NW) 3,239 6.2 -13.4°
Drops below altitude 10° 12:33:53 10° 7° (N) 5,039 7.7 -11.2°
Sets 12:38:49 0° 18° (NNE) 6,167 8.2 -10.2°
